Toledo Metcalf, OH

1:00 PM EDT on May 27, 2017 (GMT -0400)
Metcalf

Weather History for KTDZ - January, 2014

Change the Weather History Date:

Wednesday, January 15, 2014

  Actual Average (KTOL) Record (KTOL)
Temperature  
Mean Temperature 26 °F -  
Max Temperature 30 °F 29 °F 63 °F (1932)
Min Temperature 21 °F 14 °F -12 °F (1972)
Degree Days  
Heating Degree Days 38    
Moisture  
Dew Point 16 °F    
Average Humidity 65    
Maximum Humidity 77    
Minimum Humidity 58    
Precipitation  
Precipitation 0.00 in - - ()
Sea Level Pressure  
Sea Level Pressure 29.96 in    
Wind  
Wind Speed 18 mph (WSW)    
Max Wind Speed 23 mph    
Max Gust Speed 38 mph    
Visibility 10 miles    
Events Snow    
Averages and records for this station are not official NWS values.
T = Trace of Precipitation, MM = Missing Value Source: NWS Daily Summary

Daily Weather History Graph

Daily Weather History Graph

Search for Another Location

Airport or City:

Trip Planner

Search our weather history database for the weather conditions in past years. The results will help you decide how hot, cold, wet, or windy it might be!

Date:

Astronomy

Jan. 15, 2014 Rise Set
Actual Time 7:58 AM EST 5:28 PM EST
Civil Twilight 7:27 AM EST 5:59 PM EST
Nautical Twilight 6:53 AM EST 6:33 PM EST
Astronomical Twilight 6:20 AM EST 7:06 PM EST
Moon 5:26 PM EST (1/15) 7:12 AM EST (1/15)
Length of Visible Light 10h 31m
Length of Day
9h 30m
Full, 100% of the Moon is Illuminated
Jan 15
Full
Jan 15
Full
Jan 24
Last Quarter
Jan 30
New
Feb 6
First Quarter

Hourly Weather History & Observations

Time (EST) Temp. Windchill Dew Point Humidity Pressure Visibility Wind Dir Wind Speed Gust Speed Precip Events Conditions
12:53 AM 30.9 °F 18.1 °F 18.0 °F 59% 29.79 in 10.0 mi WSW 21.9 mph 38.0 mph N/A   Overcast
1:53 AM 30.0 °F 18.7 °F 18.0 °F 61% 29.81 in 10.0 mi WSW 16.1 mph 31.1 mph N/A   Overcast
2:51 AM 28.4 °F 15.1 °F 17.6 °F 64% 29.81 in 10.0 mi West 20.7 mph 33.4 mph N/A   Overcast
2:53 AM 28.9 °F 15.1 °F 18.0 °F 64% 29.83 in 10.0 mi WSW 23.0 mph 33.4 mph N/A   Overcast
3:12 AM 28.4 °F 14.4 °F 15.8 °F 59% 29.82 in 10.0 mi WSW 23.0 mph 28.8 mph N/A   Overcast
3:53 AM 28.0 °F 13.9 °F 15.1 °F 58% 29.86 in 10.0 mi WSW 23.0 mph 36.8 mph N/A   Overcast
4:53 AM 26.1 °F 11.3 °F 14.0 °F 60% 29.87 in 10.0 mi WSW 23.0 mph 29.9 mph N/A   Partly Cloudy
5:53 AM 25.0 °F 10.2 °F 15.1 °F 66% 29.88 in 10.0 mi WSW 21.9 mph 28.8 mph N/A   Scattered Clouds
6:04 AM 24.8 °F 10.3 °F 15.8 °F 69% 29.87 in 10.0 mi WSW 20.7 mph 28.8 mph N/A   Mostly Cloudy
6:26 AM 24.8 °F 11.9 °F 15.8 °F 69% 29.88 in 10.0 mi WSW 16.1 mph 25.3 mph N/A   Scattered Clouds
6:53 AM 25.0 °F 10.6 °F 15.1 °F 66% 29.90 in 10.0 mi WSW 20.7 mph 27.6 mph N/A   Clear
7:53 AM 24.1 °F 11.0 °F 15.1 °F 69% 29.92 in 10.0 mi WSW 16.1 mph 25.3 mph N/A   Clear
8:53 AM 25.0 °F 12.6 °F 16.0 °F 69% 29.94 in 10.0 mi WSW 15.0 mph 26.5 mph N/A   Overcast
9:08 AM 24.8 °F 11.1 °F - N/A% 29.95 in 10.0 mi WSW 18.4 mph 25.3 mph N/A   Overcast
9:53 AM 26.1 °F 12.7 °F - N/A% 29.97 in 8.0 mi WSW 18.4 mph 25.3 mph 0.00 in Snow Light Snow
10:53 AM 26.1 °F 12.3 °F - N/A% 29.99 in 5.0 mi WSW 19.6 mph 24.2 mph 0.00 in Snow Light Snow
11:35 AM 26.6 °F 14.3 °F 17.6 °F 69% 29.99 in 10.0 mi WSW 16.1 mph - 0.00 in   Overcast
11:53 AM 27.0 °F 15.2 °F 17.1 °F 66% 29.99 in 10.0 mi WSW 15.0 mph - 0.00 in   Overcast
12:53 PM 28.0 °F 16.1 °F 17.1 °F 63% 29.97 in 10.0 mi WSW 16.1 mph - 0.00 in   Overcast
1:03 PM 28.4 °F 17.5 °F 17.6 °F 64% 29.97 in 10.0 mi WSW 13.8 mph - N/A   Overcast
1:53 PM 28.0 °F 16.5 °F 17.1 °F 63% 29.97 in 10.0 mi West 15.0 mph - 0.00 in   Overcast
2:38 PM 26.6 °F 15.2 °F 15.8 °F 64% 29.97 in 10.0 mi West 13.8 mph - 0.00 in   Overcast
2:46 PM 26.6 °F 14.3 °F 15.8 °F 64% 29.98 in 10.0 mi WSW 16.1 mph - 0.00 in   Overcast
2:53 PM 27.0 °F 15.2 °F 15.1 °F 61% 29.98 in 10.0 mi West 15.0 mph - 0.00 in   Overcast
3:53 PM 27.0 °F 16.7 °F 16.0 °F 63% 30.00 in 10.0 mi WSW 11.5 mph - N/A   Overcast
4:34 PM 26.6 °F 16.2 °F 15.8 °F 64% 30.00 in 10.0 mi WSW 11.5 mph - N/A   Overcast
4:53 PM 26.1 °F 15.6 °F 15.1 °F 63% 30.01 in 10.0 mi WSW 11.5 mph - N/A   Overcast
5:04 PM 26.6 °F 16.2 °F 15.8 °F 64% 30.01 in 10.0 mi WSW 11.5 mph - N/A   Overcast
5:34 PM 26.6 °F 16.8 °F 15.8 °F 64% 30.02 in 10.0 mi WSW 10.4 mph - N/A   Overcast
5:51 PM 26.6 °F 15.2 °F 15.8 °F 64% 30.02 in 10.0 mi WSW 13.8 mph - N/A   Overcast
5:53 PM 26.1 °F 14.5 °F 16.0 °F 66% 30.02 in 10.0 mi WSW 13.8 mph - N/A   Overcast
6:06 PM 26.6 °F 15.2 °F 15.8 °F 64% 30.03 in 10.0 mi WSW 13.8 mph - N/A   Overcast
6:53 PM 26.1 °F 16.2 °F 16.0 °F 66% 30.02 in 10.0 mi WSW 10.4 mph - N/A   Overcast
7:53 PM 25.0 °F 14.8 °F 17.1 °F 72% 30.02 in 10.0 mi WSW 10.4 mph - N/A   Overcast
8:53 PM 25.0 °F 14.8 °F 18.0 °F 75% 30.06 in 10.0 mi SW 10.4 mph - N/A   Overcast
9:53 PM 24.1 °F 12.5 °F 18.0 °F 77% 30.05 in 10.0 mi SW 12.7 mph - N/A   Overcast
10:53 PM 23.0 °F 11.7 °F 14.0 °F 68% 30.04 in 10.0 mi WSW 11.5 mph 19.6 mph 0.00 in   Overcast
11:40 PM 23.0 °F 11.1 °F 12.2 °F 63% 30.01 in 9.0 mi WSW 12.7 mph - 0.00 in Snow Light Snow
11:53 PM 21.9 °F 9.2 °F 12.9 °F 68% 30.03 in 9.0 mi WSW 13.8 mph - 0.00 in Snow Light Snow